Location: Dal�� Lhota
(48.7500°N, 14.0167°E)
Time: 01:54:58
(UTC+00:00)

H-2A R/B - Pass Details

Date: 24 September 2020
Orbit: 734 x 836 km, 98.2° (Epoch: 29 October)

Event Time Altitude Azimuth Distance (km) Brightness Sun altitude
Rises 17:46:45 0° 157° (SSE) 3,180 4.9 -9.0°
Reaches altitude 10° 17:49:00 10° 155° (SSE) 2,272 4.1 -9.4°
Maximum altitude 17:53:59 70° 72° (ENE) 816 2.0 -10.2°
Drops below altitude 10° 17:59:07 10° 350° (N) 2,350 4.8 -11.0°
Sets 18:01:30 0° 348° (NNW) 3,300 5.6 -11.4°
